Flag for Canada Weather past 2 weeks in Charlottetown, Prince Edward Island, Canada

Now
64 °F

Overcast.


Feels Like: 64 °F
Forecast: 60 / 71 °F
Wind: 16 mph from Southwest

Location: Charlottetown

Current Time: May 28, 2015 at 5:26:07 AM

Latest Report: May 28, 2015 at 4:00 AM


Visibility: 10 mi

Pressure: 29.98 "Hg

Humidity: 88%

Dew point: 61 °F

Location of CharlottetownLocation

Historic Weather in Charlottetown — Graph

°F

Charlottetown temperature yesterday

Maximum temperature yesterday: 81 °F (at 4:00 PM)
Minimum temperature yesterday: 57 °F (at 6:00 AM)
Average temperature yesterday: 67 °F

Past Weeks' High & Low Weather Summary

 TemperatureHumidityPressure
High81 °F (May 27, 4:00 PM)100% (May 13, 7:00 AM)30.34 "Hg (May 13, 7:00 AM)
Low36 °F (May 18, 3:00 AM)23% (May 15, 3:00 PM)29.41 "Hg (May 20, 6:00 PM)
Average54 °F63%29.99 "Hg
* Reported May 13 4:00 AM — May 28 4:00 AM, Charlottetown, Weather by CustomWeather, © 2015

Note: Actual official high and low records may vary slightly from our data, if they occured in-between our weather recording intervals... More about our weather records

Advertising

Charlottetown weather history for previous 24 hours

 ConditionsComfort  
Time TempWeatherWind HumidityBarometerVisibility
4:00 AM
Thu, May 28
64 °FOvercast.16 mph88%29.98 "Hg10 mi
3:00 AM64 °FOvercast.18 mph88%30.00 "Hg10 mi
2:00 AM64 °FOvercast.15 mph88%30.01 "Hg12 mi
1:00 AM66 °FOvercast.20 mph88%30.03 "Hg12 mi
12:00 AM68 °FOvercast.13 mph78%30.05 "Hg15 mi
11:00 PM
Wed, May 27
68 °FOvercast.15 mph78%30.05 "Hg15 mi
10:00 PM63 °FPartly cloudy.10 mph88%30.06 "Hg12 mi
9:00 PM66 °FScattered clouds.12 mph83%30.05 "Hg15 mi
8:00 PM68 °FScattered clouds.14 mph73%30.03 "Hg15 mi
7:00 PM75 °FBroken clouds.13 mph65%30.02 "Hg15 mi
6:00 PM79 °FBroken clouds.13 mph58%30.04 "Hg15 mi
5:00 PM81 °FOvercast.12 mph58%30.05 "Hg15 mi
4:00 PM81 °FOvercast.10 mphN/A30.07 "Hg15 mi
3:00 PM79 °FOvercast.12 mphN/A30.08 "Hg15 mi
1:00 PM75 °FHigh level clouds.12 mphN/A30.10 "Hg15 mi
12:00 PM73 °FHigh level clouds.10 mph65%30.11 "Hg15 mi
11:00 AM70 °FHigh level clouds.13 mph73%30.11 "Hg15 mi
10:00 AM68 °FOvercast.10 mph73%30.10 "Hg12 mi
9:00 AM64 °FOvercast.13 mph73%30.11 "Hg12 mi
8:00 AM61 °FBroken clouds.13 mph83%30.10 "Hg12 mi
7:00 AM59 °FPartly sunny.14 mph88%30.06 "Hg12 mi
6:00 AM57 °FPartly cloudy.15 mph94%30.05 "Hg12 mi
5:00 AM59 °FPassing clouds.14 mph88%30.03 "Hg10 mi
Weather by CustomWeather, © 2015

See weather overviewHow to use our weather pages